Regional Weather Roundup
Issued by NWS

Home | Current Version | Previous Version | Graphics & Text | Print | Product List | Glossary On
Versions: 1 2 3 4 5 6 7 8 9 10 11 12 13 14 15 16 17 18 19 20 21 22 23 24 25 26 27 28 29 30 31 32 33 34 35 36 37 38 39 40 41 42 43 44 45 46 47 48 49 50
000
ASUS45 KCYS 260510
RWRWY

WYOMING REGIONAL WEATHER ROUNDUP
NATIONAL WEATHER SERVICE CHEYENNE WY
1100 PM MDT SAT APR 25 2015

NOTE:  "FAIR" INDICATES FEW OR NO CLOUDS BELOW 12,000 FEET
WITH NO SIGNIFICANT WEATHER AND/OR OBSTRUCTIONS TO VISIBILITY.

WYZ001-260600-
YELLOWSTONE NATIONAL PARK

CITY           SKY/WX    TMP DP  RH WIND       PRES   REMARKS
LK YELLOWSTONE   N/A     32  26  78 CALM      29.84S
W YELLOWSTONE  NOT AVBL

$$
WYZ002>013-054>058-071-098>099-260600-
NORTHERN WYOMING

CITY           SKY/WX    TMP DP  RH WIND       PRES   REMARKS
JACKSON        CLOUDY    39  28  65 N9        29.76F WCI  33
CODY           CLOUDY    43  34  70 NW8       29.85F
GREYBULL       FAIR      45  32  60 NW12      29.80S
WORLAND        CLOUDY    47  33  58 N6        29.82R
SHERIDAN       CLOUDY    42  35  76 CALM      29.91R
BUFFALO        CLOUDY    40  33  76 NW5       29.92R
GILLETTE       CLOUDY    41  35  79 N15       29.89F
HULETT         CLOUDY    39  37  93 N5        29.93S FOG
NEWCASTLE      CLOUDY    43  43 100 N7        29.85S

$$
WYZ014>020-022>026-101>103-260600-
CENTRAL WYOMING

CITY           SKY/WX    TMP DP  RH WIND       PRES   REMARKS
BIG PINEY      CLOUDY    39  33  79 W9        29.78R WCI  33
PINEDALE       LGT RAIN  41  28  60 SW3       29.77F
DUBOIS         CLOUDY    37  30  75 SE15      29.79S WCI  28
LANDER         CLOUDY    43  36  76 E12       29.79S
RIVERTON       CLOUDY    42  37  82 E16       29.81R
CASPER         CLOUDY    42  32  67 NE20      29.86S
DOUGLAS        CLOUDY    44  37  76 N8        29.88R

$$
WYZ021-027>030-104>119-260600-
SOUTHERN WYOMING

CITY           SKY/WX    TMP DP  RH WIND       PRES   REMARKS
EVANSTON       LGT RAIN  36  34  92 N9        29.74F VSB 3/4 WCI  29
KEMMERER       LGT RAIN  36  34  93 N7        29.75F WCI  30
FORT BRIDGER   CLOUDY    39  39 100 N5        29.76F
ROCK SPRINGS   CLOUDY    41  33  73 E12       29.75F
DIXON          CLOUDY    46  36  69 E7        29.82F
RAWLINS        CLOUDY    41  26  55 E5        29.78F
SARATOGA       CLOUDY    41  32  70 S7        29.80S
LARAMIE        CLOUDY    41  36  82 E7        29.82F
CHEYENNE       CLOUDY    44  39  82 E13       29.81F
TORRINGTON     CLOUDY    51  44  77 E10       29.80R
PINE BLUFFS    MOCLDY    45  41  87 NE9       29.80S

$$



USA.gov is the U.S. government's official web portal to all federal, state and local government web resources and services.